www.pogodaiklimat.ru

Погода и климат >> Архив погоды >> Финляндия >> Киттиля


ПОГОДА в Киттиля

  • Прогноз погоды в Киттиля
  • Монитор погоды в Киттиля

АРХИВ ПОГОДЫ в Киттиля

Время (UTC), дата Ветер
(напр.,м/с)
 
Видим.   Явления Облачность Т
(С)
Тd
(С)
f
(%)
Тe
(С)
Тes
(С)
Комфортность P
(гПа)
Po
(гПа)
Тmin
(С)
Tmax
(С)
R
(мм)
R24
(мм)
S
(см)
21 16.09 С 4 50 км 10/10 600 м
[]
+4.8 +2.8 87 +1 +1 998.9 975.5
00 17.09 С 4 50 км 10/10 200 м
[]
+4.6 +3.5 93 0 0 999.3 975.9
03 17.09 С 2 15 км слаб. ливневой дождь 10/10 100 м
[]
+4.2 +3.8 97 +1 +1 999.7 976.2
06 17.09 СВ 4 50 км в посл. час дождь 10/10 300 м
[]
+5.2 +3.9 91 +1 +1 1000.7 977.3 +4.0 +5.2
09 17.09 СВ 4 50 км 10/10 300 м
[]
+6.1 +2.6 78 +2 +2 1002.5 979.0
12 17.09 СВ 5 50 км 9/8 600 м
[]
+6.5 +1.0 68 +3 +3 1003.6 980.1
15 17.09 С 2 50 км 10/10 1000 м
[]
+6.5 0.0 63 +5 +5 1004.4 981.0
18 17.09 СВ 3 45 км 10/4
[]
+3.9 0.0 76 0 0 1005.5 981.8 +3.9 +7.1
21 17.09 С 1 50 км ясно +1.4 -0.3 88 -0 -0 1007.3 983.3
00 18.09 штиль 0 50 км 9/9 1000 м
[]
-0.9 -1.4 96 -2 -2 1008.2 984.0
03 18.09 З 1 50 км 9/9 1500 м
[]
-1.1 -1.6 96 -3 -3 1008.6 984.4
06 18.09 штиль 0 50 км 10/10 1000 м
[]
+1.5 +0.7 94 0 0 1009.1 985.1 -1.9 +3.9
09 18.09 СЗ 2 50 км 9/9 1500 м
[]
+5.0 +0.9 75 +3 +3 1009.6 986.0
12 18.09 СЗ 6 50 км слаб. дождь 9/9 600 м
[]
+4.7 +1.1 77 -0 -0 1010.1 986.4
15 18.09 З 1 50 км 10/10
[]
+4.6 +2.8 88 +3 +3 1010.3 986.5
18 18.09 З 2 50 км 10/10
[]
+2.1 -0.8 81 -1 -1 1011.0 987.1 +1.5 +6.4
21 18.09 СЗ 1 50 км 3/3 1000 м
[]
-0.6 -1.9 91 -3 -3 1011.7 987.5
00 19.09 СЗ 1 50 км ясно -3.6 -4.1 96 -6 -6 1012.3 987.8
03 19.09 З 2 50 км 9/1 1000 м
[]
-1.2 -2.3 92 -5 -5 1011.9 987.6
06 19.09 СЗ 2 50 км ясно +0.8 -1.0 88 -3 -2 1012.1 987.9 -3.6 +2.1
09 19.09 СЗ 4 50 км ясно +4.2 -1.1 68 0 +2 1011.8 987.9
12 19.09 СЗ 5 50 км в посл. час дождь 9/9 1000 м
[]
+6.4 -2.2 54 +3 +3 1011.3 987.7
15 19.09 СЗ 2 50 км 9/8 2000 м
[]
+3.8 0.0 76 +1 +1 1011.9 988.1
18 19.09 З 2 50 км 9/6
[]
+1.9 -1.8 76 -1 -1 1011.5 987.5 +0.8 +6.6
21 19.09 З 4 50 км 10/10 2000 м
[]
+2.4 -2.0 73 -2 -2 1010.8 986.8
00 20.09 З 4 50 км 10/10 1500 м
[]
+2.4 -1.9 73 -2 -2 1010.6 986.7
03 20.09 З 3 50 км ясно +0.9 -1.8 82 -4 -4 1010.0 986.0
06 20.09 СЗ 3 50 км 10/10
[]
+3.4 -1.1 72 -0 -0 1009.9 986.1 +0.7 +3.5
09 20.09 СЗ 4 50 км 8/8 600 м
[]
+5.4 -0.6 65 +2 +2 1009.9 986.2
12 20.09 СЗ 4 50 км 9/4 600 м
[]
+6.5 -0.6 60 +3 +4 1009.9 986.3
15 20.09 З 2 50 км 10/6 1000 м
[]
+6.4 +0.2 65 +4 +5 1008.8 985.3
18 20.09 С 2 50 км 9/9 1000 м
[]
+3.5 +1.0 84 +1 +1 1009.0 985.2 +3.3 +6.8
21 20.09 С 1 50 км ясно +0.2 -0.4 96 -2 -2 1009.2 985.1
00 21.09 З 2 50 км 9/9
[]
-1.9 -2.3 97 -6 -6 1009.0 984.7
03 21.09 ЮЗ 1 50 км 5/5
[]
-4.6 -5.0 97 -7 -7 1008.9 984.4
06 21.09 штиль 0 50 км 9/9 2000 м
[]
-1.9 -2.7 94 -3 -3 1008.4 984.2 -5.2 +3.5
09 21.09 З 2 50 км 8/8
[]
+3.2 0.0 80 0 +1 1008.3 984.5
12 21.09 СЗ 5 50 км 3/3 1000 м
[]
+6.8 -1.8 54 +3 +4 1008.2 984.7
15 21.09 С 3 50 км в посл. час дождь 9/4 600 м
[]
+2.8 +0.5 85 -1 -1 1009.8 985.9
18 21.09 С 4 50 км 9/9 1000 м
[]
+2.5 -0.3 82 -2 -2 1011.4 987.5 -1.9 +7.4
21 21.09 С 5 50 км 9/9 1000 м
[]
+1.9 -0.9 82 -4 -4 1013.2 989.2
00 22.09 С 5 50 км 10/10 300 м
[]
+1.3 -0.8 86 -4 -4 1015.5 991.3
03 22.09 СЗ 2 50 км ясно -0.8 -1.8 93 -5 -5 1017.4 993.1
06 22.09 С 5 50 км 5/5 2000 м
[]
+1.6 -1.6 79 -4 -4 1018.9 994.7 -1.0 +2.8
09 22.09 С 7 50 км 3/1 600 м
[]
+5.0 -0.8 66 -0 0 1019.9 995.9
12 22.09 С 6 50 км в посл. час дождь 4/4 600 м
[]
+5.2 -0.5 67 +1 +1 1020.8 996.8
15 22.09 С 5 50 км 5/5 1000 м
[]
+4.8 -1.5 64 0 +1 1021.5 997.5
18 22.09 СЗ 3 50 км 1/1 1000 м
[]
+1.9 -1.7 77 -2 -2 1022.1 997.8 +1.6 +5.6
21 22.09 СЗ 5 50 км 8/8 1000 м
[]
+1.7 -1.3 80 -4 -4 1022.9 998.6
00 23.09 СЗ 4 50 км 6/6 1000 м
[]
+0.9 -1.4 85 -4 -4 1023.5 999.1
03 23.09 СЗ 4 50 км 8/8 1000 м
[]
+0.6 -2.3 81 -5 -5 1023.3 998.9
06 23.09 СЗ 4 50 км 9/9 1000 м
[]
+1.1 -2.1 79 -4 -4 1023.0 998.6 -0.1 +3.4
09 23.09 С 5 50 км 3/0
[]
+4.6 -1.9 63 0 +1 1022.1 998.1
12 23.09 С 4 50 км 9/9 1000 м
[]
+4.8 -2.0 61 +1 +1 1021.3 997.3
15 23.09 С 3 50 км 3/3 1000 м
[]
+4.3 -2.4 62 +1 +1 1020.5 996.5
18 23.09 СЗ 2 50 км 1/1 1000 м
[]
+0.7 -2.6 79 -3 -3 1020.9 996.6 +0.7 +5.2

 

Местоположение метеостанции Киттиля (Финляндия): широта 67.70 долгота 24.85 высота над уровнем моря 196 м.

В архиве по умолчанию представлена погода в Киттиля за последнюю неделю. Архивные данные за месяц целиком и за предыдущие месяцы, начиная с января 2011 года, Вы можете получить, выбрав интересующий диапазон дат из раскрывающегося списка и нажав кнопку "Ввод!".


*Определитесь, кто Вы:
робот инопланетянин человек

Внимание! Время в таблицах - всемирное. Для получения местного времени необходимо прибавить поправку, которая равна 1 ч.

Смотрите также архив погоды в соседних городах и на ближайших метеорологических станциях:

Погода в Киттиля (Финляндия) (6 км)
Погода в Киттила Левитунтури (Финляндия) (9 км)
Погода в Киттила Кенттарова (Финляндия) (41 км)
Погода в Киттила Маторова (Финляндия) (42 км)
Погода в Киттиля Ломполонвуома (Финляндия) (43 км)
Погода в Муонио Саммалтунтури (Финляндия) (43 км)
Погода в Муонио Лаукукеро (Финляндия) (53 км)
Погода в Муонио Аламуонио (Финляндия) (59 км)
Погода в Киттила Покка (Финляндия) (65 км)
Погода в Паджала аэропорту (Швеция) (84 км)

Пояснения к столбцам:

Ветер - указаны скорость ветра в м/с - средняя за 10 мин, порывы в срок и между сроками (в фигурных скобках) и направление, откуда дует ветер: С - северный, СВ - северо-восточный, В - восточный, ЮВ - юго-восточный, Ю - южный, ЮЗ - юго-западный, З - западный, СЗ - северо-западный.
Видимость - горизонтальная дальность видимости в метрах или километрах. При видимости от 1 до 10 км при отсутствии осадков обычно наблюдается дымка, при ухудшении видимости до 1 км и менее - туман. В сухую погоду видимость может ухудшаться дымом, пылью или мглою.
Явления - указаны атмосферные явления, наблюдавшиеся в срок или в последний час перед сроком; фигурными скобками обозначены явления, наблюдавшиеся между сроками (за 1-3 часа до срока); квадратными скобками обозначены град или гололедные отложения с указанием их диаметра в мм.
Облачность - указаны через наклонную черту общая и нижняя облачность в баллах и высота нижней границы облаков в метрах; квадратными скобками обозначены формы облаков: Ci - перистые, Cs - перисто-слоистые, Cc - перисто-кучевые, Ac - высококучевые, As - высокослоистые, Sc - слоисто-кучевые, Ns - слоисто-дождевые, Cu - кучевые, Cb - кучево-дождевые. Подробнее классификацию облаков см. в Атласе облаков (PDF).
T - Температура воздуха - температура, измеренная на высоте 2 м над землей.
Td - Температура точки росы - температура, при понижении до которой содержащийся в воздухе водяной пар достигнет насыщения.
f - Относительная влажность воздуха - влажноcть воздуха, измеренная на высоте 2 м над землей.
Te - Эффективная температура - температура, которую ощущает одетый по сезону человек в тени. Характеристика душности погоды. При расчете учитывается влияние влажности воздуха и скорости ветра на теплоощущения человека.
Tes - Эффективная температура на солнце - температура, которую ощущает человек, с поправкой на солнечный нагрев. Характеристика знойности погоды. Зависит от высоты солнца над горизонтом, облачности и скорости ветра. Ночью, в пасмурную погоду, а также при ветре 12 м/с и более поправка равна нулю.
P - Атмосферное давление - приведенное к уровню моря атмосферное давление.
Po - Атмосферное давление - измеренное на уровне метеостанции атмосферное давление.
Tmin - Минимальная температура - минимум температуры воздуха на высоте 2 м над землей.
Tmax - Максимальная температура - максимум температуры воздуха на высоте 2 м над землей.
R - Количество осадков - Количество выпавших осадков за период времени, мм. При наведении курсора мыши на число - период времени, за который выпало указанное количество осадков.
R24 - Количество осадков - Количество выпавших осадков за 24 часа, мм.
S - Снежный покров - Высота снежного покрова, см. При наведении курсора мыши на число - состояние снежного покрова и степень покрытия местности в баллах.